QPF
0.10 0.13 0.11 0.08 0.08 0.09 0.09 0.12 0.14 0.13 0.11 0.10 0.08 0.09 0.09 0.10 0.10 0.09 0.07 0.04 0.03 0.02 0.02 0.02 0.02 0.03 0.03 0.03 0.03 0.04 0.06 0.08 0.11 0.12 0.11 0.09 0.08 0.07
0.09 0.08 0.08 0.08 0.08 0.09 0.09 0.11 0.12 0.14 0.13 0.11 0.10 0.09 0.09 0.08 0.08 0.09 0.09 0.07 0.04 0.03 0.02 0.02 0.01 0.01 0.02 0.03 0.04 0.06 0.07 0.08 0.09 0.10 0.08 0.06 0.04 0.04
0.07 0.08 0.07 0.10 0.08 0.07 0.08 0.09 0.10 0.14 0.14 0.12 0.11 0.11 0.12 0.11 0.10 0.09 0.07 0.05 0.04 0.03 0.03 0.02 0.01 0.02 0.03 0.03 0.04 0.05 0.05 0.06 0.06 0.06 0.06 0.05 0.04 0.04
0.07 0.08 0.08 0.09 0.10 0.08 0.08 0.08 0.08 0.10 0.11 0.11 0.11 0.11 0.13 0.13 0.11 0.08 0.05 0.04 0.05 0.05 0.05 0.05 0.05 0.06 0.06 0.06 0.06 0.07 0.07 0.07 0.06 0.05 0.04 0.03 0.03 0.03
0.04 0.04 0.05 0.07 0.07 0.07 0.07 0.06 0.06 0.07 0.09 0.09 0.08 0.09 0.10 0.10 0.10 0.08 0.06 0.06 0.06 0.07 0.07 0.06 0.05 0.05 0.05 0.05 0.05 0.04 0.04 0.03 0.02 0.02 0.02 0.02 0.02 0.02
0.02 0.02 0.03 0.04 0.05 0.06 0.05 0.05 0.05 0.06 0.07 0.07 0.07 0.07 0.07 0.08 0.08 0.07 0.08 0.08 0.06 0.05 0.05 0.04 0.04 0.03 0.03 0.02 0.02 0.02 0.03 0.02 0.02 0.01 0.01 0.02 0.02 0.03
0.03 0.02 0.02 0.03 0.04 0.04 0.03 0.04 0.04 0.05 0.06 0.06 0.07 0.07 0.07 0.08 0.07 0.07 0.07 0.08 0.07 0.04 0.05 0.03 0.02 0.02 0.02 0.03 0.03 0.03 0.03 0.03 0.02 0.02 0.01 0.01 0.02 0.02
0.04 0.04 0.04 0.05 0.05 0.03 0.03 0.03 0.04 0.04 0.05 0.06 0.08 0.08 0.07 0.08 0.09 0.08 0.08 0.08 0.06 0.04 0.04 0.03 0.03 0.03 0.02 0.02 0.04 0.05 0.05 0.05 0.04 0.03 0.02 0.02 0.02 0.02
0.06 0.06 0.05 0.04 0.05 0.04 0.04 0.03 0.02 0.02 0.03 0.04 0.06 0.07 0.07 0.08 0.08 0.07 0.07 0.06 0.04 0.04 0.03 0.03 0.04 0.04 0.03 0.02 0.02 0.03 0.04 0.05 0.04 0.03 0.03 0.02 0.01 0.01
0.06 0.06 0.07 0.07 0.05 0.04 0.04 0.04 0.03 0.03 0.03 0.03 0.04 0.05 0.06 0.05 0.04 0.04 0.05 0.05 0.05 0.05 0.04 0.03 0.03 0.03 0.02 0.02 0.02 0.02 0.02 0.03 0.03 0.03 0.02 0.02 0.02 0.02
0.06 0.06 0.06 0.06 0.06 0.06 0.05 0.05 0.05 0.05 0.03 0.04 0.03 0.03 0.03 0.02 0.02 0.02 0.03 0.03 0.03 0.03 0.03 0.02 0.02 0.02 0.01 0.01 0.01 0.01 0.01 0.01 0.02 0.02 0.02 0.02 0.02 0.03
0.07 0.08 0.08 0.07 0.09 0.09 0.07 0.06 0.06 0.04 0.04 0.03 0.02 0.02 0.02 0.02 0.01 0.01 0.02 0.03 0.03 0.03 0.03 0.02 0.01 0.01 0.01 0.01 0.01 0.01 0.01 0.01 0.02 0.02 0.02 0.03 0.04 0.05
0.09 0.10 0.11 0.13 0.11 0.10 0.08 0.07 0.06 0.05 0.05 0.04 0.04 0.04 0.03 0.03 0.03 0.02 0.03 0.03 0.03 0.03 0.03 0.02 0.02 0.01 0.01 0.01 0.01 0.01 0.01 0.01 0.01 0.01 0.02 0.02 0.03 0.05
0.10 0.11 0.12 0.14 0.14 0.13 0.11 0.09 0.07 0.06 0.07 0.07 0.06 0.05 0.05 0.05 0.05 0.04 0.03 0.03 0.03 0.03 0.03 0.03 0.02 0.02 0.02 0.02 0.02 0.01 0.01 0.02 0.01 0.01 0.01 0.02 0.03 0.04
0.08 0.08 0.08 0.09 0.09 0.08 0.08 0.07 0.08 0.07 0.07 0.07 0.06 0.06 0.06 0.06 0.05 0.05 0.04 0.04 0.04 0.03 0.03 0.03 0.03 0.03 0.03 0.03 0.02 0.02 0.02 0.02 0.02 0.02 0.02 0.02 0.02 0.03
0.06 0.06 0.05 0.04 0.05 0.05 0.05 0.05 0.05 0.05 0.05 0.05 0.05 0.05 0.05 0.04 0.04 0.04 0.03 0.03 0.03 0.03 0.03 0.03 0.03 0.03 0.03 0.03 0.03 0.03 0.03 0.02 0.02 0.02 0.03 0.02 0.02 0.02
0.06 0.05 0.05 0.05 0.05 0.04 0.04 0.04 0.05 0.05 0.05 0.04 0.04 0.04 0.04 0.04 0.04 0.04 0.05 0.04 0.03 0.03 0.03 0.04 0.04 0.04 0.04 0.04 0.03 0.03 0.03 0.02 0.02 0.02 0.03 0.03 0.02 0.02
0.03 0.03 0.04 0.04 0.05 0.05 0.05 0.06 0.07 0.06 0.05 0.04 0.04 0.04 0.05 0.05 0.06 0.06 0.05 0.05 0.04 0.04 0.04 0.04 0.04 0.04 0.04 0.04 0.03 0.02 0.02 0.02 0.02 0.02 0.03 0.03 0.03 0.02
0.06 0.06 0.06 0.06 0.07 0.08 0.08 0.08 0.08 0.07 0.07 0.06 0.06 0.06 0.06 0.05 0.04 0.04 0.03 0.03 0.03 0.03 0.03 0.03 0.03 0.03 0.04 0.04 0.04 0.02 0.02 0.02 0.03 0.03 0.03 0.03 0.03 0.03
0.08 0.08 0.08 0.09 0.10 0.09 0.09 0.08 0.08 0.08 0.08 0.07 0.06 0.06 0.05 0.05 0.05 0.05 0.04 0.04 0.03 0.03 0.03 0.03 0.03 0.03 0.03 0.03 0.03 0.02 0.02 0.02 0.02 0.02 0.02 0.03 0.03 0.03
0.08 0.08 0.09 0.10 0.11 0.11 0.10 0.09 0.10 0.10 0.09 0.08 0.07 0.05 0.05 0.06 0.06 0.06 0.06 0.05 0.05 0.04 0.03 0.03 0.04 0.03 0.03 0.03 0.03 0.03 0.03 0.02 0.01 0.02 0.02 0.02 0.03 0.04
0.06 0.05 0.05 0.05 0.05 0.06 0.07 0.07 0.06 0.06 0.05 0.05 0.04 0.04 0.04 0.05 0.05 0.06 0.06 0.06 0.05 0.04 0.03 0.04 0.04 0.04 0.04 0.03 0.03 0.03 0.03 0.03 0.02 0.01 0.01 0.01 0.02 0.03
0.03 0.03 0.03 0.04 0.04 0.04 0.04 0.05 0.05 0.05 0.05 0.05 0.05 0.04 0.04 0.04 0.05 0.05 0.05 0.05 0.05 0.04 0.04 0.04 0.04 0.04 0.04 0.03 0.03 0.03 0.03 0.04 0.04 0.04 0.03 0.03 0.03 0.03
MSLP
1013.44 1013.50 1013.59 1013.74 1013.92 1014.12 1014.33 1014.54 1014.75 1014.95 1015.15 1015.38 1015.62 1015.90 1016.20 1016.52 1016.84 1017.16 1017.45 1017.70 1017.91 1018.09 1018.22 1018.32 1018.41 1018.48 1018.54 1018.58 1018.62 1018.65 1018.65 1018.63 1018.58 1018.50 1018.40 1018.28 1018.14 1018.00
1012.89 1012.95 1013.06 1013.23 1013.46 1013.72 1014.00 1014.29 1014.59 1014.87 1015.15 1015.44 1015.72 1016.02 1016.33 1016.64 1016.94 1017.24 1017.52 1017.76 1017.98 1018.17 1018.33 1018.47 1018.60 1018.71 1018.82 1018.91 1018.98 1019.02 1019.04 1019.02 1018.96 1018.87 1018.74 1018.58 1018.40 1018.20
1012.49 1012.58 1012.72 1012.92 1013.18 1013.48 1013.81 1014.16 1014.50 1014.84 1015.16 1015.46 1015.76 1016.05 1016.34 1016.62 1016.89 1017.15 1017.40 1017.63 1017.84 1018.04 1018.23 1018.40 1018.57 1018.73 1018.89 1019.03 1019.14 1019.23 1019.27 1019.27 1019.23 1019.13 1018.99 1018.81 1018.60 1018.36
1012.27 1012.40 1012.58 1012.81 1013.10 1013.43 1013.79 1014.16 1014.52 1014.86 1015.19 1015.49 1015.76 1016.02 1016.26 1016.49 1016.71 1016.93 1017.13 1017.33 1017.53 1017.73 1017.94 1018.14 1018.35 1018.56 1018.77 1018.96 1019.12 1019.25 1019.34 1019.37 1019.35 1019.28 1019.15 1018.97 1018.75 1018.49
1012.18 1012.37 1012.60 1012.87 1013.18 1013.53 1013.90 1014.26 1014.62 1014.95 1015.25 1015.52 1015.75 1015.96 1016.15 1016.32 1016.48 1016.63 1016.79 1016.95 1017.13 1017.32 1017.53 1017.76 1018.00 1018.25 1018.50 1018.73 1018.95 1019.12 1019.25 1019.33 1019.35 1019.31 1019.21 1019.05 1018.84 1018.58
1012.16 1012.41 1012.69 1013.00 1013.33 1013.69 1014.06 1014.41 1014.75 1015.05 1015.32 1015.55 1015.74 1015.90 1016.03 1016.14 1016.24 1016.34 1016.45 1016.58 1016.73 1016.91 1017.11 1017.35 1017.61 1017.88 1018.15 1018.42 1018.67 1018.88 1019.05 1019.17 1019.23 1019.23 1019.17 1019.05 1018.87 1018.64
1012.12 1012.42 1012.74 1013.09 1013.45 1013.82 1014.18 1014.52 1014.84 1015.13 1015.37 1015.57 1015.73 1015.85 1015.94 1016.00 1016.06 1016.12 1016.19 1016.28 1016.41 1016.56 1016.76 1016.99 1017.25 1017.52 1017.81 1018.09 1018.35 1018.58 1018.78 1018.93 1019.02 1019.07 1019.06 1018.98 1018.85 1018.65
1011.98 1012.33 1012.69 1013.07 1013.45 1013.83 1014.19 1014.54 1014.85 1015.12 1015.36 1015.55 1015.70 1015.81 1015.88 1015.93 1015.97 1016.01 1016.05 1016.12 1016.22 1016.36 1016.53 1016.75 1016.99 1017.25 1017.52 1017.79 1018.04 1018.27 1018.47 1018.63 1018.75 1018.83 1018.86 1018.83 1018.74 1018.59
1011.72 1012.10 1012.50 1012.91 1013.31 1013.70 1014.08 1014.43 1014.75 1015.03 1015.28 1015.49 1015.66 1015.78 1015.87 1015.94 1015.98 1016.02 1016.06 1016.11 1016.20 1016.31 1016.46 1016.65 1016.86 1017.09 1017.32 1017.56 1017.78 1017.99 1018.17 1018.32 1018.44 1018.53 1018.58 1018.59 1018.55 1018.45
1011.37 1011.78 1012.21 1012.64 1013.06 1013.47 1013.86 1014.23 1014.57 1014.88 1015.16 1015.40 1015.61 1015.78 1015.91 1016.00 1016.07 1016.13 1016.18 1016.23 1016.31 1016.41 1016.53 1016.68 1016.86 1017.04 1017.23 1017.42 1017.59 1017.74 1017.88 1018.00 1018.09 1018.17 1018.23 1018.26 1018.25 1018.20
1011.02 1011.46 1011.91 1012.35 1012.79 1013.21 1013.62 1014.00 1014.36 1014.71 1015.02 1015.31 1015.57 1015.79 1015.97 1016.11 1016.22 1016.31 1016.37 1016.44 1016.51 1016.59 1016.69 1016.81 1016.94 1017.08 1017.22 1017.34 1017.45 1017.54 1017.62 1017.69 1017.74 1017.79 1017.83 1017.86 1017.87 1017.85
1010.76 1011.22 1011.69 1012.15 1012.60 1013.03 1013.44 1013.83 1014.21 1014.58 1014.93 1015.26 1015.56 1015.82 1016.05 1016.24 1016.39 1016.50 1016.59 1016.66 1016.73 1016.81 1016.89 1016.98 1017.07 1017.16 1017.24 1017.31 1017.36 1017.38 1017.39 1017.39 1017.39 1017.39 1017.40 1017.42 1017.43 1017.43
1010.65 1011.14 1011.63 1012.10 1012.55 1012.98 1013.38 1013.77 1014.16 1014.53 1014.89 1015.25 1015.58 1015.88 1016.14 1016.36 1016.54 1016.68 1016.78 1016.86 1016.92 1016.99 1017.05 1017.11 1017.18 1017.23 1017.27 1017.29 1017.28 1017.25 1017.19 1017.13 1017.07 1017.02 1016.99 1016.98 1016.98 1017.00
1010.72 1011.23 1011.73 1012.20 1012.64 1013.06 1013.45 1013.82 1014.19 1014.56 1014.93 1015.28 1015.63 1015.94 1016.22 1016.46 1016.65 1016.79 1016.90 1016.97 1017.04 1017.09 1017.14 1017.19 1017.23 1017.26 1017.27 1017.25 1017.20 1017.12 1017.02 1016.90 1016.79 1016.69 1016.62 1016.59 1016.58 1016.61
1010.91 1011.43 1011.93 1012.40 1012.82 1013.21 1013.58 1013.93 1014.28 1014.63 1014.98 1015.33 1015.67 1015.98 1016.26 1016.50 1016.69 1016.83 1016.93 1017.00 1017.05 1017.09 1017.13 1017.16 1017.19 1017.21 1017.21 1017.17 1017.10 1017.00 1016.87 1016.72 1016.58 1016.45 1016.35 1016.29 1016.28 1016.31
1011.11 1011.63 1012.12 1012.57 1012.97 1013.34 1013.68 1014.01 1014.34 1014.67 1015.01 1015.34 1015.67 1015.98 1016.25 1016.47 1016.65 1016.77 1016.86 1016.92 1016.96 1016.99 1017.02 1017.05 1017.07 1017.09 1017.09 1017.05 1016.98 1016.88 1016.74 1016.59 1016.43 1016.29 1016.18 1016.12 1016.11 1016.15
1011.22 1011.71 1012.18 1012.60 1012.98 1013.33 1013.65 1013.97 1014.29 1014.61 1014.94 1015.27 1015.59 1015.89 1016.15 1016.37 1016.53 1016.64 1016.72 1016.76 1016.78 1016.80 1016.82 1016.85 1016.88 1016.90 1016.91 1016.89 1016.84 1016.75 1016.64 1016.50 1016.36 1016.23 1016.13 1016.08 1016.08 1016.13
1011.13 1011.58 1012.01 1012.40 1012.76 1013.10 1013.42 1013.74 1014.06 1014.40 1014.74 1015.09 1015.42 1015.72 1015.98 1016.19 1016.34 1016.44 1016.50 1016.53 1016.55 1016.56 1016.57 1016.60 1016.63 1016.67 1016.69 1016.70 1016.68 1016.63 1016.54 1016.44 1016.34 1016.25 1016.18 1016.15 1016.18 1016.25
1010.82 1011.22 1011.60 1011.97 1012.31 1012.65 1012.98 1013.33 1013.68 1014.05 1014.42 1014.79 1015.14 1015.46 1015.73 1015.94 1016.10 1016.20 1016.25 1016.27 1016.28 1016.28 1016.29 1016.32 1016.36 1016.40 1016.45 1016.48 1016.50 1016.49 1016.45 1016.40 1016.35 1016.31 1016.29 1016.30 1016.36 1016.45
1010.36 1010.69 1011.03 1011.37 1011.71 1012.06 1012.42 1012.80 1013.20 1013.61 1014.03 1014.44 1014.82 1015.16 1015.44 1015.67 1015.82 1015.92 1015.97 1015.99 1015.99 1015.99 1016.00 1016.03 1016.07 1016.13 1016.19 1016.25 1016.30 1016.34 1016.35 1016.36 1016.36 1016.38 1016.41 1016.47 1016.56 1016.69
1009.83 1010.11 1010.41 1010.73 1011.08 1011.45 1011.85 1012.28 1012.72 1013.18 1013.64 1014.08 1014.49 1014.85 1015.15 1015.38 1015.54 1015.64 1015.69 1015.70 1015.70 1015.70 1015.71 1015.74 1015.79 1015.85 1015.93 1016.01 1016.09 1016.16 1016.23 1016.29 1016.35 1016.42 1016.50 1016.61 1016.74 1016.89
1009.35 1009.60 1009.88 1010.20 1010.56 1010.97 1011.40 1011.87 1012.35 1012.85 1013.33 1013.80 1014.22 1014.58 1014.88 1015.10 1015.26 1015.35 1015.40 1015.41 1015.41 1015.41 1015.42 1015.45 1015.50 1015.58 1015.66 1015.76 1015.86 1015.97 1016.07 1016.17 1016.28 1016.41 1016.54 1016.69 1016.85 1017.02
1009.03 1009.27 1009.56 1009.89 1010.28 1010.71 1011.18 1011.67 1012.18 1012.68 1013.17 1013.63 1014.03 1014.37 1014.65 1014.85 1014.99 1015.07 1015.11 1015.12 1015.12 1015.13 1015.14 1015.18 1015.23 1015.31 1015.40 1015.51 1015.63 1015.75 1015.88 1016.02 1016.17 1016.34 1016.51 1016.70 1016.88 1017.07
Thickness
5758 5757 5756 5757 5757 5756 5754 5750 5741 5734 5735 5740 5740 5742 5740 5738 5734 5731 5728 5725 5723 5721 5719 5717 5716 5714 5713 5712 5711 5710 5709 5707 5705 5703 5701 5699 5697 5695
5757 5755 5754 5754 5754 5754 5752 5750 5747 5739 5734 5738 5738 5738 5737 5734 5729 5727 5724 5721 5718 5716 5714 5712 5711 5709 5708 5707 5706 5705 5703 5701 5699 5697 5695 5694 5692 5690
5755 5754 5752 5752 5750 5750 5750 5748 5745 5741 5734 5734 5735 5733 5731 5728 5724 5721 5719 5716 5713 5711 5710 5708 5706 5704 5703 5701 5700 5698 5697 5694 5692 5690 5688 5687 5685 5683
5753 5751 5749 5749 5747 5746 5745 5743 5742 5740 5735 5729 5729 5727 5724 5722 5719 5717 5714 5712 5708 5706 5704 5702 5701 5698 5697 5695 5693 5691 5690 5688 5686 5684 5682 5680 5678 5676
5751 5749 5747 5745 5742 5742 5740 5739 5738 5738 5735 5729 5726 5724 5720 5718 5714 5712 5710 5707 5704 5702 5699 5697 5695 5693 5690 5688 5687 5685 5683 5681 5679 5676 5674 5672 5670 5669
5749 5747 5745 5742 5739 5738 5737 5735 5734 5732 5730 5727 5723 5720 5717 5714 5710 5706 5703 5701 5699 5697 5694 5691 5688 5686 5683 5681 5680 5677 5675 5673 5671 5668 5666 5664 5662 5660
5746 5744 5743 5740 5737 5735 5733 5730 5729 5726 5724 5721 5718 5715 5711 5707 5705 5703 5699 5696 5694 5693 5689 5686 5683 5680 5677 5675 5673 5670 5668 5665 5663 5661 5658 5656 5654 5652
5741 5739 5738 5735 5733 5730 5727 5725 5724 5721 5718 5715 5713 5709 5707 5704 5702 5699 5694 5690 5687 5688 5684 5681 5679 5676 5673 5670 5667 5665 5661 5658 5656 5653 5650 5648 5645 5643
5736 5734 5733 5732 5728 5725 5722 5719 5717 5716 5714 5711 5707 5705 5703 5700 5696 5692 5690 5686 5684 5683 5680 5675 5674 5671 5669 5666 5662 5659 5655 5652 5649 5646 5642 5640 5637 5635
5732 5729 5727 5725 5722 5720 5717 5714 5712 5710 5708 5706 5704 5702 5700 5697 5693 5689 5685 5682 5679 5678 5675 5670 5669 5666 5664 5659 5656 5652 5648 5644 5641 5638 5635 5632 5629 5627
5727 5725 5722 5719 5716 5713 5710 5707 5705 5703 5701 5699 5697 5695 5693 5690 5687 5682 5678 5674 5670 5669 5668 5664 5662 5659 5656 5652 5648 5644 5641 5637 5633 5630 5627 5624 5621 5618
5721 5719 5716 5713 5709 5706 5703 5700 5697 5696 5694 5691 5689 5687 5685 5682 5679 5675 5672 5667 5664 5661 5660 5656 5654 5650 5646 5645 5641 5637 5632 5628 5625 5621 5618 5615 5612 5609
5713 5711 5710 5706 5702 5699 5697 5694 5692 5689 5688 5685 5683 5680 5678 5675 5671 5668 5666 5662 5658 5654 5653 5649 5645 5641 5638 5636 5633 5630 5626 5622 5617 5614 5610 5607 5603 5601
5705 5704 5701 5697 5693 5690 5688 5687 5684 5681 5680 5677 5674 5671 5669 5666 5664 5661 5658 5655 5652 5649 5646 5642 5637 5633 5629 5626 5624 5621 5618 5614 5610 5607 5603 5599 5595 5592
5696 5694 5691 5688 5685 5682 5680 5678 5675 5673 5670 5667 5665 5663 5661 5659 5656 5652 5649 5646 5643 5641 5637 5634 5630 5626 5622 5618 5615 5612 5609 5606 5603 5599 5595 5592 5588 5584
5686 5683 5681 5678 5676 5675 5672 5669 5667 5665 5663 5660 5657 5655 5653 5650 5646 5643 5639 5636 5632 5629 5627 5624 5621 5617 5613 5610 5607 5604 5601 5598 5595 5591 5587 5584 5581 5577
5676 5675 5672 5669 5667 5666 5664 5663 5660 5657 5654 5651 5648 5645 5642 5639 5636 5634 5630 5626 5622 5619 5617 5615 5612 5608 5605 5601 5597 5595 5592 5590 5587 5584 5579 5576 5574 5571
5667 5666 5664 5662 5659 5657 5655 5653 5650 5647 5645 5643 5639 5635 5632 5629 5626 5624 5620 5616 5612 5610 5607 5605 5602 5598 5594 5592 5590 5586 5583 5580 5578 5575 5572 5568 5566 5564
5657 5656 5654 5652 5650 5648 5644 5641 5638 5636 5633 5631 5627 5625 5621 5618 5615 5612 5609 5606 5603 5600 5597 5594 5591 5586 5582 5579 5579 5577 5573 5571 5568 5565 5562 5560 5558 5556
5646 5644 5642 5640 5637 5635 5631 5628 5625 5623 5620 5617 5615 5612 5609 5606 5603 5600 5597 5594 5591 5588 5585 5582 5578 5575 5571 5569 5568 5567 5565 5562 5558 5556 5554 5552 5550 5548
5634 5632 5629 5627 5624 5621 5618 5615 5612 5610 5606 5603 5600 5598 5596 5593 5590 5587 5584 5581 5578 5575 5573 5570 5568 5565 5563 5560 5558 5557 5556 5553 5550 5547 5545 5542 5540 5537
5622 5619 5616 5613 5610 5607 5604 5602 5600 5596 5593 5590 5587 5585 5583 5580 5577 5575 5572 5569 5567 5565 5562 5560 5558 5556 5553 5549 5547 5546 5545 5543 5540 5538 5535 5533 5530 5527
5609 5606 5603 5600 5597 5594 5591 5589 5586 5583 5579 5577 5574 5572 5570 5568 5565 5563 5561 5559 5556 5554 5552 5549 5547 5545 5543 5541 5538 5536 5535 5534 5531 5528 5526 5524 5521 5518